{"data":{"norad_id":55841,"intl_designator":"2023-031A","name":"LUCH-5X (OLYMP-K 2)","alt_names":[],"object_type":"PAYLOAD","status":"ACTIVE","operator":null,"country":"CIS","launch_date":"2023-03-12","launch_site_code":"TYMSC","launch_vehicle":null,"mission":null,"orbit_class":"UNKNOWN","rcs_meters":null,"size_class":null,"mass_kg":null,"dimensions":null,"purposes":["comms"],"wikipedia_slug":null,"has_3d_model":false,"image_url":null,"decayed_at":null,"tle_current":{"epoch":"2026-09-19T00:09:34.481376Z","epoch_age_seconds":147154,"freshness":"FRESH","line1":"1 55841U 23031A   26262.00664909  .00000030  00000+0  00000+0 0  9995","line2":"2 55841   0.0148 118.5270 0000862  73.4707 230.3066  1.00266669 12870","mean_motion":1.00266669,"eccentricity":8.62e-5,"inclination_deg":0.0148,"raan_deg":118.527,"arg_perigee_deg":73.4707,"mean_anomaly_deg":230.3066,"bstar":0,"rev_number":1287,"period_min":1436.1701793444,"perigee_km":35784.39449916,"apogee_km":35791.663946217,"semimajor_km":42166.166222689,"source":"CELESTRAK","updated_at":"2026-09-20T09:00:35.330666Z"}}}